221 Weather Reports


time (UTC)temp
C
wind
direction
speed
KPH
gust
KPH
rain 1hr
cm
rain 24hr
cm
rain mn
cm
humidity
%
barometer
mb
20260507051532 21 51 12.9 24.1 0.00 0.00 0.00 90 1009.9
20260507050032 21 51 11.3 22.5 0.00 0.00 0.00 91 1010.0
20260507044530 21 51 14.5 25.7 0.00 0.00 0.00 91 1009.7
20260507043028 21 51 12.9 24.1 0.00 0.00 0.00 91 1009.9
20260507041526 21 51 8.0 22.5 0.00 0.00 0.00 91 1009.4
20260507040032 21 51 9.7 19.3 0.00 0.00 0.00 91 1009.5
20260507034527 21 51 8.0 20.9 0.00 0.00 0.00 91 1009.4
20260507033031 21 51 8.0 20.9 0.00 0.00 0.00 91 1009.6
20260507031529 21 51 4.8 16.1 0.00 0.00 0.00 90 1009.9
20260507030028 21 51 4.8 14.5 0.00 0.00 0.00 90 1010.1
20260507024528 21 51 4.8 14.5 0.00 0.00 0.00 90 1010.1
20260507023030 21 51 8.0 16.1 0.00 0.00 0.00 90 1010.2
20260507021533 21 51 8.0 17.7 0.00 0.00 0.00 90 1010.2
20260507020036 21 51 8.0 19.3 0.00 0.00 0.00 90 1010.4
20260507014530 21 51 8.0 14.5 0.00 0.00 0.00 90 1010.4
20260507013043 21 51 6.4 14.5 0.00 0.00 0.00 90 1010.7
20260507011529 21 51 6.4 11.3 0.00 0.00 0.00 90 1010.8
20260507010034 21 51 11.3 16.1 0.00 0.00 0.00 90 1010.9
20260507004528 22 51 8.0 19.3 0.00 0.00 0.00 90 1011.0
20260507003038 22 51 9.7 19.3 0.00 0.00 0.00 89 1011.3
20260507001527 22 51 9.7 17.7 0.00 0.00 0.00 89 1011.4
20260507000034 22 51 8.0 16.1 0.00 0.00 0.00 89 1011.4
20260506234528 22 51 9.7 16.1 0.00 0.00 0.00 88 1011.6
20260506233028 22 51 9.7 16.1 0.00 0.00 0.00 88 1011.8
20260506231528 22 51 8.0 14.5 0.00 0.00 0.00 88 1011.8
20260506230029 22 51 6.4 14.5 0.00 0.00 0.00 87 1011.6
20260506224533 22 51 3.2 14.5 0.00 0.00 0.00 87 1011.5
20260506223039 22 51 8.0 16.1 0.00 0.00 0.00 87 1011.4
20260506221528 22 51 6.4 14.5 0.00 0.00 0.00 87 1011.3
20260506220030 22 51 6.4 11.3 0.00 0.00 0.00 87 1011.2
20260506214538 22 51 1.6 16.1 0.00 0.00 0.00 86 1011.3
20260506213028 22 51 9.7 29.0 0.00 0.00 0.00 86 1011.2
20260506211528 22 51 6.4 22.5 0.00 0.00 0.00 86 1011.1
20260506210030 22 51 12.9 22.5 0.00 0.00 0.00 86 1011.2
20260506204530 22 51 8.0 24.1 0.00 0.00 0.00 86 1011.2
20260506203027 22 51 9.7 24.1 0.00 0.00 0.00 87 1010.9
20260506201526 22 51 11.3 25.7 0.00 0.00 0.00 86 1010.8
20260506200028 22 51 8.0 22.5 0.00 0.00 0.00 86 1010.8
20260506194528 22 51 9.7 20.9 0.00 0.00 0.00 86 1010.9
20260506193028 22 51 8.0 25.7 0.00 0.00 0.00 85 1010.7
20260506191527 23 51 8.0 24.1 0.00 0.00 0.00 85 1010.7
20260506190028 23 51 11.3 24.1 0.00 0.00 0.00 85 1010.3
20260506184542 23 51 11.3 20.9 0.00 0.00 0.00 85 1010.0
20260506183037 23 51 11.3 20.9 0.00 0.00 0.00 85 1010.3
20260506181544 23 51 16.1 22.5 0.00 0.00 0.00 84 1010.0
20260506180034 23 51 11.3 25.7 0.00 0.00 0.00 83 1009.9
20260506174528 23 51 14.5 22.5 0.00 0.00 0.00 83 1009.9
20260506173031 24 51 11.3 24.1 0.00 0.00 0.00 83 1010.1
20260506171528 24 51 12.9 27.4 0.00 0.00 0.00 82 1010.1
20260506170028 23 51 14.5 30.6 0.00 0.00 0.00 82 1010.1
20260506164536 24 51 14.5 29.0 0.00 0.00 0.00 81 1010.1
20260506163030 24 51 14.5 27.4 0.00 0.00 0.00 81 1010.4
20260506161528 24 51 16.1 25.7 0.00 0.00 0.00 82 1010.7
20260506160030 24 51 12.9 27.4 0.00 0.00 0.00 81 1010.8
20260506154532 24 51 16.1 27.4 0.00 0.00 0.00 80 1010.9
20260506153029 24 51 16.1 27.4 0.00 0.00 0.00 79 1010.8
20260506151530 25 51 9.7 20.9 0.00 0.00 0.00 80 1011.0
20260506150033 24 51 14.5 27.4 0.00 0.00 0.00 81 1011.0
20260506144529 24 51 12.9 29.0 0.00 0.00 0.00 81 1011.0
20260506143031 24 51 12.9 25.7 0.00 0.00 0.00 80 1011.4
20260506141531 24 51 14.5 25.7 0.00 0.00 0.00 80 1011.5
20260506140030 24 51 12.9 27.4 0.00 0.00 0.00 81 1011.7
20260506134532 24 51 16.1 30.6 0.00 0.00 0.00 80 1011.8
20260506133027 24 51 17.7 29.0 0.00 0.00 0.00 80 1012.1
20260506131534 25 51 9.7 22.5 0.00 0.00 0.00 79 1012.2
20260506130028 24 51 6.4 22.5 0.00 0.00 0.00 81 1012.2
20260506124528 23 51 11.3 30.6 0.00 0.00 0.00 82 1012.3
20260506123053 23 51 16.1 33.8 0.00 0.00 0.00 82 1012.1
20260506121529 23 51 17.7 32.2 0.00 0.00 0.00 82 1012.3
20260506120029 23 51 19.3 35.4 0.00 0.00 0.00 82 1012.4
20260506114530 24 0 12.9 33.8 0.00 0.00 0.00 84 1012.5
20260506113038 23 51 16.1 37.0 0.00 0.00 0.00 85 1012.7
20260506111531 23 51 12.9 27.4 0.00 0.00 0.00 84 1012.9
20260506110030 23 51 12.9 27.4 0.00 0.00 0.00 84 1013.1
20260506104533 23 51 12.9 25.7 0.00 0.00 0.00 84 1013.1
20260506103027 23 51 16.1 24.1 0.00 0.00 0.00 83 1013.0
20260506101525 23 51 11.3 22.5 0.00 0.00 0.00 84 1012.7
20260506100028 23 51 8.0 22.5 0.00 0.00 0.00 86 1012.6
20260506094528 23 51 12.9 20.9 0.00 0.00 0.00 86 1012.5
20260506093027 22 51 6.4 22.5 0.00 0.00 0.00 88 1012.4
20260506091530 22 51 11.3 27.4 0.00 0.00 0.00 88 1012.4
20260506090033 22 51 11.3 27.4 0.00 0.00 0.00 89 1012.2
20260506084530 22 51 14.5 24.1 0.00 0.00 0.00 89 1012.0
20260506083028 22 51 6.4 24.1 0.00 0.00 0.00 91 1011.9
20260506081530 22 51 12.9 22.5 0.00 0.00 0.00 91 1012.0
20260506073030 22 51 9.7 19.3 0.00 0.00 0.00 92 1011.7
20260506071530 22 51 6.4 19.3 0.00 0.00 0.00 93 1011.7
20260506061528 22 51 9.7 17.7 0.00 0.00 0.00 92 1011.4